Change the Weather History Date:

Saturday, March 15, 2014

  Actual Average (KLAS) Record (KLAS)
Temperature  
Mean Temperature 66 °F 60 °F  
Max Temperature 77 °F 70 °F 87 °F (2007)
Min Temperature 54 °F 49 °F 26 °F (1962)
Degree Days  
Heating Degree Days 0 6  
Month to date heating degree days 110  
Since 1 July heating degree days 1801  
Cooling Degree Days 1 1  
Month to date cooling degree days 7  
Year to date cooling degree days 8  
Growing Degree Days 16 (Base 50)    
Moisture  
Dew Point 17 °F    
Average Humidity 16    
Maximum Humidity 26    
Minimum Humidity 9    
Precipitation  
Precipitation 0.00 in 0.02 in 0.08 in (1965)
Month to date precipitation 0.28  
Year to date precipitation 1.58  
Snow  
Snow 0.00 in 0.00 in T in (1963)
Month to date snowfall 0.0  
Since 1 July snowfall 0.3  
Snow Depth -    
Sea Level Pressure  
Sea Level Pressure 30.24 in    
Wind  
Wind Speed 8 mph (NNE)    
Max Wind Speed 18 mph    
Max Gust Speed 23 mph    
Visibility 10 miles    
Events      
T = Trace of Precipitation, MM = Missing Value Source: NWS Daily Summary

Daily Weather History Graph

Daily Weather History Graph

Search for Another Location

Airport or City:

Trip Planner

Search our weather history database for the weather conditions in past years. The results will help you decide how hot, cold, wet, or windy it might be!

Date:

Astronomy

Mar. 15, 2014 Rise Set
Actual Time 6:51 AM PDT 6:48 PM PDT
Civil Twilight 6:25 AM PDT 7:13 PM PDT
Nautical Twilight 5:55 AM PDT 7:43 PM PDT
Astronomical Twilight 5:26 AM PDT 8:13 PM PDT
Moon 6:11 PM PDT (3/15) 6:04 AM PDT (3/15)
Length of Visible Light 12h 47m
Length of Day
11h 56m
Waxing Gibbous, 99% of the Moon is Illuminated
Mar 15
Waxing Gibbous
Mar 16
Full
Mar 23
Last Quarter
Mar 30
New
Apr 7
First Quarter

Hourly Weather History & Observations

Time (PDT) Temp. Dew Point Humidity Pressure Visibility Wind Dir Wind Speed Gust Speed Precip Events Conditions
12:56 AM 55.9 °F 10.0 °F 16% 30.09 in 10.0 mi SSE 6.9 mph - N/A   Clear
1:56 AM 61.0 °F 17.1 °F 18% 30.11 in 10.0 mi NE 6.9 mph - N/A   Clear
2:56 AM 61.9 °F 20.1 °F 20% 30.13 in 10.0 mi NE 5.8 mph - N/A   Clear
3:56 AM 59.9 °F 22.1 °F 23% 30.14 in 10.0 mi NNE 6.9 mph - N/A   Clear
4:56 AM 56.8 °F 22.1 °F 26% 30.18 in 10.0 mi North 10.4 mph - N/A   Clear
5:56 AM 57.9 °F 20.1 °F 23% 30.20 in 10.0 mi North 15.0 mph 20.7 mph N/A   Clear
6:56 AM 55.9 °F 20.1 °F 25% 30.25 in 10.0 mi NNE 6.9 mph - N/A   Clear
7:56 AM 57.9 °F 21.0 °F 24% 30.29 in 10.0 mi NE 6.9 mph - N/A   Clear
8:56 AM 63.0 °F 21.0 °F 20% 30.32 in 10.0 mi NNE 10.4 mph - N/A   Clear
9:56 AM 65.8 °F 19.0 °F 17% 30.33 in 10.0 mi North 12.7 mph - N/A   Clear
10:56 AM 68.0 °F 19.0 °F 15% 30.32 in 10.0 mi NNE 12.7 mph 21.9 mph N/A   Clear
11:56 AM 68.9 °F 17.1 °F 14% 30.30 in 10.0 mi North 10.4 mph 16.1 mph N/A   Clear
12:56 PM 72.0 °F 19.0 °F 13% 30.28 in 10.0 mi North 15.0 mph 21.9 mph N/A   Clear
1:56 PM 73.9 °F 17.1 °F 12% 30.25 in 10.0 mi North 18.4 mph 23.0 mph N/A   Clear
2:56 PM 73.9 °F 17.1 °F 12% 30.23 in 10.0 mi North 10.4 mph 21.9 mph N/A   Clear
3:56 PM 74.8 °F 15.1 °F 10% 30.22 in 10.0 mi NNW 16.1 mph - N/A   Clear
4:56 PM 77.0 °F 15.1 °F 10% 30.20 in 10.0 mi NE 5.8 mph - N/A   Clear
5:56 PM 75.9 °F 12.0 °F 9% 30.20 in 10.0 mi NE 9.2 mph - N/A   Clear
6:56 PM 70.9 °F 12.0 °F 10% 30.21 in 10.0 mi NE 4.6 mph - N/A   Clear
7:56 PM 68.0 °F 12.0 °F 11% 30.23 in 10.0 mi NNE 3.5 mph - N/A   Clear
8:56 PM 64.9 °F 12.0 °F 13% 30.25 in 10.0 mi Calm Calm - 0.00 in   Clear
9:56 PM 61.9 °F 13.1 °F 15% 30.29 in 10.0 mi NNW 5.8 mph - N/A   Clear
10:56 PM 59.0 °F 14.0 °F 17% 30.32 in 10.0 mi Variable 3.5 mph - N/A   Clear
11:56 PM 54.0 °F 15.1 °F 22% 30.33 in 10.0 mi Variable 3.5 mph - N/A   Clear